• In Lithuania
  • List of Countries
  • For 7 days
  • Water Temperature
  • Satellite Maps
  • Weather Map
  • Weather Widgets
  • user-avatar
    Login

    Hourly Weather Punakha

    Today, 23 June, Saturday

    Time Temperature Precipitation Wind Pressure Humidity
    00:00 +18°C° 0 mm 0 mps 583 mmHg 89%
    01:00 +18°C° 0 mm 0 mps 582 mmHg 89%
    02:00 +17°C° 0 mm 0 mps 582 mmHg 89%
    03:00 +17°C° 0 mm 0 mps 582 mmHg 89%
    04:00 +17°C° 0 mm 0 mps 582 mmHg 87%
    05:00 +17°C° 0 mm 0 mps 583 mmHg 85%
    06:00 +18°C° 0 mm 0 mps 583 mmHg 83%
    07:00 +21°C° 0 mm 1 mps 584 mmHg 76%
    08:00 +23°C° 0 mm 1 mps 584 mmHg 70%
    09:00 +25°C° 0 mm 2 mps 585 mmHg 64%
    10:00 +26°C° 0 mm 2 mps 585 mmHg 61%
    11:00 +27°C° 0 mm 2 mps 585 mmHg 59%
    12:00 +28°C° 0 mm 3 mps 585 mmHg 56%
    13:00 +27°C° 0.1 mm 3 mps 584 mmHg 60%
    14:00 +27°C° 0.1 mm 3 mps 583 mmHg 63%
    15:00 +26°C° 0.1 mm 3 mps 583 mmHg 67%
    16:00 +25°C° 0.1 mm 2 mps 582 mmHg 73%
    17:00 +24°C° 0.1 mm 2 mps 582 mmHg 78%
    18:00 +23°C° 0.1 mm 2 mps 581 mmHg 84%
    19:00 +21°C° 0.1 mm 2 mps 581 mmHg 87%
    20:00 +22°C° 0.1 mm 1 mps 581 mmHg 90%
    21:00 +21°C° 0.1 mm 1 mps 581 mmHg 93%
    22:00 +21°C° 0.1 mm 1 mps 581 mmHg 92%
    23:00 +20°C° 0.1 mm 1 mps 582 mmHg 92%

    Tomorrow, 24 June, Sunday

    Time Temperature Precipitation Wind Pressure Humidity
    00:00 +18°C° 0.1 mm 0 mps 582 mmHg 91%
    01:00 +18°C° 0 mm 0 mps 581 mmHg 91%
    02:00 +18°C° 0 mm 0 mps 581 mmHg 91%
    03:00 +17°C° 0 mm 0 mps 581 mmHg 91%
    04:00 +17°C° 0 mm 0 mps 581 mmHg 89%
    05:00 +18°C° 0 mm 0 mps 581 mmHg 87%
    06:00 +18°C° 0 mm 0 mps 582 mmHg 85%
    07:00 +22°C° 0 mm 1 mps 582 mmHg 77%
    08:00 +24°C° 0 mm 1 mps 583 mmHg 69%
    09:00 +25°C° 0 mm 2 mps 584 mmHg 62%
    10:00 +26°C° 0 mm 2 mps 584 mmHg 61%
    11:00 +27°C° 0 mm 2 mps 584 mmHg 60%
    12:00 +27°C° 0 mm 3 mps 584 mmHg 59%
    13:00 +27°C° 0.2 mm 3 mps 583 mmHg 64%
    14:00 +26°C° 0.2 mm 3 mps 582 mmHg 70%
    15:00 +25°C° 0.2 mm 2 mps 582 mmHg 75%
    16:00 +24°C° 0.1 mm 2 mps 581 mmHg 78%
    17:00 +24°C° 0.1 mm 2 mps 581 mmHg 81%
    18:00 +23°C° 0.1 mm 2 mps 581 mmHg 85%
    19:00 +22°C° 0 mm 1 mps 581 mmHg 87%
    20:00 +22°C° 0 mm 1 mps 581 mmHg 90%
    21:00 +19°C° 0 mm 0 mps 581 mmHg 92%
    22:00 +18°C° 0 mm 0 mps 581 mmHg 93%
    23:00 +18°C° 0 mm 0 mps 581 mmHg 93%

    Day after tomorrow, 25 June, Monday

    Time Temperature Precipitation Wind Pressure Humidity
    00:00 +18°C° 0 mm 0 mps 581 mmHg 93%
    01:00 +18°C° 0 mm 0 mps 581 mmHg 92%
    02:00 +17°C° 0 mm 0 mps 581 mmHg 92%
    03:00 +17°C° 0 mm 0 mps 581 mmHg 91%
    04:00 +18°C° 0.2 mm 0 mps 581 mmHg 88%
    05:00 +18°C° 0.2 mm 0 mps 581 mmHg 85%
    06:00 +18°C° 0.2 mm 0 mps 581 mmHg 83%
    07:00 +21°C° 0.1 mm 1 mps 582 mmHg 78%
    08:00 +23°C° 0.1 mm 1 mps 582 mmHg 74%
    09:00 +24°C° 0.1 mm 2 mps 583 mmHg 69%
    10:00 +25°C° 0 mm 2 mps 583 mmHg 66%
    11:00 +26°C° 0 mm 2 mps 583 mmHg 63%
    12:00 +27°C° 0 mm 2 mps 583 mmHg 60%
    13:00 +27°C° 0 mm 3 mps 583 mmHg 60%
    14:00 +27°C° 0 mm 3 mps 582 mmHg 60%
    15:00 +28°C° 0 mm 3 mps 582 mmHg 60%
    16:00 +26°C° 0.1 mm 3 mps 581 mmHg 68%
    17:00 +25°C° 0.1 mm 2 mps 581 mmHg 76%
    18:00 +23°C° 0.1 mm 2 mps 580 mmHg 84%
    19:00 +23°C° 0.1 mm 2 mps 580 mmHg 87%
    20:00 +22°C° 0.1 mm 1 mps 581 mmHg 90%
    21:00 +21°C° 0.1 mm 1 mps 581 mmHg 94%
    22:00 +21°C° 0.1 mm 1 mps 581 mmHg 94%
    23:00 +19°C° 0.1 mm 0 mps 581 mmHg 94%

    26 June, Tuesday

    Time Temperature Precipitation Wind Pressure Humidity
    00:00 +19°C° 0.1 mm 0 mps 581 mmHg 94%
    01:00 +18°C° 0.1 mm 0 mps 581 mmHg 93%
    02:00 +18°C° 0.1 mm 0 mps 581 mmHg 92%
    03:00 +18°C° 0.1 mm 0 mps 581 mmHg 92%
    04:00 +18°C° 0 mm 0 mps 581 mmHg 91%
    05:00 +18°C° 0 mm 0 mps 581 mmHg 90%
    06:00 +18°C° 0 mm 0 mps 581 mmHg 89%
    07:00 +22°C° 0 mm 1 mps 582 mmHg 83%
    08:00 +23°C° 0 mm 1 mps 583 mmHg 78%
    09:00 +24°C° 0 mm 2 mps 583 mmHg 72%
    10:00 +25°C° 0.1 mm 2 mps 583 mmHg 69%
    11:00 +26°C° 0.1 mm 2 mps 584 mmHg 66%
    12:00 +27°C° 0.1 mm 3 mps 584 mmHg 64%
    13:00 +26°C° 0.1 mm 3 mps 583 mmHg 66%
    14:00 +26°C° 0.1 mm 3 mps 583 mmHg 68%
    15:00 +26°C° 0.1 mm 3 mps 582 mmHg 69%
    16:00 +25°C° 0.1 mm 2 mps 582 mmHg 75%
    17:00 +24°C° 0.1 mm 2 mps 582 mmHg 80%
    18:00 +23°C° 0.1 mm 2 mps 582 mmHg 85%
    19:00 +22°C° 0.1 mm 1 mps 582 mmHg 88%
    20:00 +22°C° 0.1 mm 1 mps 582 mmHg 92%
    21:00 +21°C° 0.1 mm 1 mps 582 mmHg 95%
    22:00 +21°C° 0.1 mm 1 mps 582 mmHg 95%
    23:00 +19°C° 0.1 mm 0 mps 582 mmHg 95%

    27 June, Wednesday

    Time Temperature Precipitation Wind Pressure Humidity
    00:00 +18°C° 0.1 mm 0 mps 582 mmHg 95%
    01:00 +18°C° 0.1 mm 0 mps 582 mmHg 94%
    02:00 +18°C° 0.1 mm 0 mps 582 mmHg 93%
    03:00 +18°C° 0.1 mm 0 mps 582 mmHg 93%
    04:00 +18°C° 0.1 mm 0 mps 582 mmHg 92%
    05:00 +18°C° 0.1 mm 0 mps 582 mmHg 90%
    06:00 +18°C° 0.1 mm 0 mps 583 mmHg 89%
    07:00 +22°C° 0.1 mm 1 mps 583 mmHg 84%
    08:00 +23°C° 0.1 mm 1 mps 584 mmHg 79%
    09:00 +24°C° 0.1 mm 2 mps 585 mmHg 73%
    10:00 +24°C° 0.3 mm 2 mps 584 mmHg 75%
    11:00 +24°C° 0.3 mm 2 mps 584 mmHg 76%
    12:00 +24°C° 0.3 mm 3 mps 584 mmHg 78%
    13:00 +24°C° 0.3 mm 2 mps 583 mmHg 78%
    14:00 +24°C° 0.3 mm 2 mps 583 mmHg 79%
    15:00 +23°C° 0.3 mm 2 mps 583 mmHg 80%
    16:00 +23°C° 0.1 mm 2 mps 583 mmHg 81%
    17:00 +23°C° 0.1 mm 2 mps 583 mmHg 82%
    18:00 +23°C° 0.1 mm 1 mps 583 mmHg 83%
    19:00 +22°C° 0 mm 1 mps 583 mmHg 86%
    20:00 +21°C° 0 mm 1 mps 583 mmHg 90%
    21:00 +20°C° 0 mm 1 mps 583 mmHg 93%
    22:00 +20°C° 0 mm 1 mps 583 mmHg 93%
    23:00 +18°C° 0 mm 0 mps 583 mmHg 92%

    28 June, Thursday

    Time Temperature Precipitation Wind Pressure Humidity
    00:00 +18°C° 0 mm 0 mps 583 mmHg 92%
    01:00 +17°C° 0 mm 0 mps 583 mmHg 92%
    02:00 +17°C° 0 mm 0 mps 582 mmHg 92%
    03:00 +17°C° 0 mm 0 mps 582 mmHg 92%
    04:00 +17°C° 0 mm 0 mps 582 mmHg 90%
    05:00 +18°C° 0 mm 0 mps 583 mmHg 89%
    06:00 +18°C° 0 mm 0 mps 583 mmHg 87%
    07:00 +21°C° 0 mm 1 mps 584 mmHg 82%
    08:00 +22°C° 0 mm 1 mps 584 mmHg 77%
    09:00 +24°C° 0 mm 2 mps 585 mmHg 72%
    10:00 +24°C° 0.1 mm 2 mps 585 mmHg 70%
    11:00 +25°C° 0.1 mm 2 mps 585 mmHg 69%
    12:00 +26°C° 0.1 mm 2 mps 584 mmHg 67%
    13:00 +26°C° 0.1 mm 2 mps 584 mmHg 69%
    14:00 +25°C° 0.1 mm 3 mps 583 mmHg 72%
    15:00 +25°C° 0.1 mm 3 mps 582 mmHg 74%
    16:00 +24°C° 0.1 mm 2 mps 582 mmHg 80%
    17:00 +23°C° 0.1 mm 2 mps 582 mmHg 86%
    18:00 +21°C° 0.1 mm 2 mps 581 mmHg 92%
    19:00 +21°C° 0.1 mm 1 mps 582 mmHg 93%
    20:00 +21°C° 0.1 mm 1 mps 582 mmHg 95%
    21:00 +21°C° 0.1 mm 1 mps 582 mmHg 96%
    22:00 +20°C° 0.2 mm 1 mps 582 mmHg 96%
    23:00 +20°C° 0.2 mm 1 mps 582 mmHg 97%
    Show more